Location: Famechon
(49.7599°N, 2.0615°E)
Time: 11:20:45
(UTC+00:00)

CZ-2D R/B - Visible Passes

Search period start: 06 October 2024 00:00
Search period end: 16 October 2024 00:00
Orbit: 724 x 866 km, 98.5° (Epoch: 05 October)

Date Brightness Start Highest point End Pass type
(mag) Time Alt. Az. Time Alt. Az. Time Alt. Az.
06 Oct ? 17:45:03 10° SSE 17:50:12 68° ENE 17:55:36 10° N visible
06 Oct ? 19:26:35 10° SW 19:30:21 20° W 19:34:16 10° NW visible
07 Oct ? 18:57:23 10° SSW 19:02:03 33° W 19:06:56 10° NNW visible
08 Oct ? 05:28:25 10° ENE 05:30:24 12° E 05:32:23 10° ESE visible
08 Oct ? 18:28:46 10° S 18:33:53 56° W 18:39:14 10° NNW visible
09 Oct ? 18:00:35 10° SSE 18:05:50 89° ENE 18:11:20 10° NNW visible
09 Oct ? 19:43:13 10° WSW 19:46:15 15° W 19:49:20 10° NW visible
10 Oct ? 17:32:47 10° SE 17:37:55 55° ENE 17:43:16 10° N visible
10 Oct ? 19:13:32 10° SSW 19:17:53 25° W 19:22:21 10° NW visible
11 Oct ? 18:44:38 10° SSW 18:49:37 42° W 18:54:49 10° NNW visible
12 Oct ? 18:16:13 10° S 18:21:30 70° WSW 18:27:01 10° NNW visible
12 Oct ? 20:00:34 10° W 20:02:10 11° W 20:03:46 10° WNW visible
13 Oct ? 17:48:12 10° SSE 17:53:30 73° ENE 17:59:02 10° NNW visible
13 Oct ? 19:29:55 10° SW 19:33:42 19° W 19:37:36 10° NW visible
14 Oct ? 19:00:39 10° SSW 19:05:23 32° W 19:10:18 10° NNW visible
15 Oct ? 05:31:27 10° ENE 05:33:48 13° E 05:36:08 10° ESE visible
15 Oct ? 18:31:58 10° S 18:37:11 53° W 18:42:37 10° NNW visible
